FW8496 Weather Reports


Display with metric or nautical units.
time (UTC)temp
F
wind
direction
speed
MPH
gust
MPH
rain 1hr
in
rain 24hr
in
rain mn
in
humidity
%
barometer
mb
20260901164558 65 336 5.0 10.0 0.00 0.34 0.33 75 1026.4
20260901164042 65 331 4.0 9.0 0.00 0.34 0.33 77 1026.3
20260901163542 64 22 5.0 10.0 0.00 0.34 0.33 79 1026.4
20260901163104 64 319 4.0 11.0 0.00 0.34 0.33 81 1026.3
20260901162541 63 348 5.0 11.0 0.00 0.34 0.33 82 1026.2
20260901162041 63 29 4.0 9.0 0.00 0.34 0.33 84 1026.3
20260901161558 62 340 4.0 9.0 0.00 0.34 0.33 84 1026.3
20260901161043 61 28 4.0 9.0 0.00 0.34 0.33 86 1026.3
20260901160542 61 352 3.0 9.0 0.00 0.34 0.33 87 1026.2
20260901155542 60 352 5.0 9.0 0.00 0.34 0.33 89 1026.2
20260901155043 60 27 3.0 11.0 0.00 0.34 0.33 92 1026.2
20260901154557 59 323 5.0 11.0 0.00 0.34 0.33 92 1026.3
20260901154043 59 34 5.0 10.0 0.00 0.34 0.33 92 1026.1
20260901153542 58 348 5.0 10.0 0.00 0.34 0.33 92 1026.0
20260901153052 58 331 5.0 10.0 0.00 0.34 0.33 92 1026.0
20260901152541 58 27 4.0 10.0 0.00 0.34 0.33 92 1026.0
20260901152042 58 16 5.0 9.0 0.00 0.34 0.33 93 1026.0
20260901151552 58 9 4.0 8.0 0.00 0.34 0.33 93 1026.0
20260901151045 57 351 3.0 8.0 0.00 0.34 0.33 93 1026.0
20260901150542 57 336 4.0 8.0 0.00 0.34 0.33 93 1026.0
20260901150051 57 319 3.0 9.0 0.00 0.34 0.33 93 1026.0
20260901145543 57 335 4.0 10.0 0.00 0.34 0.33 93 1025.8
20260901145042 57 333 5.0 10.0 0.00 0.34 0.33 93 1025.8
20260901144552 57 321 5.0 11.0 0.00 0.34 0.33 93 1025.9
20260901144042 57 341 4.0 11.0 0.00 0.34 0.33 93 1025.9
20260901143544 57 325 6.0 11.0 0.00 0.34 0.33 93 1025.9
20260901143102 57 293 6.0 10.0 0.00 0.34 0.33 93 1025.9
20260901142543 57 335 6.0 10.0 0.00 0.34 0.33 93 1025.9
20260901142042 57 334 6.0 11.0 0.00 0.34 0.33 93 1025.8
20260901141608 57 325 6.0 11.0 0.00 0.34 0.33 93 1025.7
20260901141040 57 305 6.0 11.0 0.00 0.34 0.33 93 1025.8
20260901140542 56 325 5.0 11.0 0.00 0.34 0.33 93 1025.7
20260901140056 57 352 5.0 10.0 0.00 0.34 0.33 93 1025.5
20260901135543 57 342 5.0 11.0 0.00 0.34 0.33 93 1025.6
20260901135043 56 340 7.0 11.0 0.00 0.34 0.33 93 1025.5
20260901134549 56 315 6.0 9.0 0.00 0.34 0.33 93 1025.7
20260901134042 56 333 5.0 9.0 0.00 0.34 0.33 93 1025.5
20260901133542 56 10 5.0 9.0 0.00 0.34 0.33 93 1025.5
20260901133107 57 326 5.0 13.0 0.00 0.34 0.33 93 1025.5
20260901132543 56 49 6.0 15.0 0.00 0.34 0.33 93 1025.2
20260901132046 57 27 8.0 17.0 0.00 0.34 0.33 93 1024.9
20260901131605 57 44 10.0 17.0 0.00 0.34 0.33 92 1024.8
20260901131043 57 30 9.0 15.0 0.00 0.34 0.33 93 1024.9
20260901130545 57 72 7.0 13.0 0.00 0.34 0.33 92 1025.0
20260901130051 57 57 7.0 13.0 0.00 0.34 0.33 92 1025.1
20260901125543 57 35 8.0 13.0 0.00 0.34 0.33 92 1024.9
20260901125045 57 26 5.0 9.0 0.00 0.34 0.33 92 1025.3
20260901124556 57 13 4.0 7.0 0.00 0.34 0.33 91 1025.5
20260901124045 57 17 2.0 5.0 0.00 0.34 0.33 91 1025.5
20260901123543 57 48 2.0 5.0 0.01 0.34 0.33 92 1025.4
20260901123059 57 15 3.0 6.0 0.02 0.34 0.33 92 1025.2
20260901122543 57 347 2.0 8.0 0.03 0.34 0.33 91 1025.2
20260901122044 57 24 4.0 8.0 0.03 0.34 0.33 91 1025.2
20260901121600 57 59 3.0 6.0 0.03 0.34 0.33 92 1025.2
20260901121042 57 53 2.0 8.0 0.03 0.34 0.33 92 1025.3
20260901120542 57 53 4.0 8.0 0.03 0.34 0.33 92 1025.2
20260901120117 57 38 4.0 6.0 0.03 0.34 0.33 92 1025.3
20260901115545 57 360 3.0 9.0 0.03 0.34 0.33 92 1025.2
20260901115042 57 320 4.0 9.0 0.03 0.34 0.33 92 1025.1
20260901114552 57 352 5.0 9.0 0.03 0.34 0.33 92 1025.2
20260901114042 57 360 4.0 7.0 0.03 0.34 0.33 92 1025.4
20260901113542 57 335 2.0 4.0 0.02 0.33 0.32 92 1025.5
20260901113057 57 62 1.0 3.0 0.01 0.32 0.31 91 1025.9
20260901112546 57 62 1.0 4.0 0.00 0.31 0.30 91 1025.8
20260901112042 57 62 2.0 4.0 0.00 0.31 0.30 91 1025.7
20260901111600 57 62 3.0 4.0 0.00 0.31 0.30 91 1025.7
20260901111042 57 62 2.0 4.0 0.00 0.31 0.30 91 1025.6
20260901110541 57 63 1.0 3.0 0.00 0.31 0.30 92 1025.7
20260901110110 57 63 0.0 5.0 0.00 0.31 0.30 91 1025.9
20260901105542 57 63 1.0 6.0 0.00 0.31 0.30 91 1025.7
20260901105042 57 63 3.0 7.0 0.00 0.31 0.30 91 1025.7
20260901104601 57 75 3.0 8.0 0.00 0.31 0.30 91 1025.6
20260901104043 57 85 4.0 8.0 0.00 0.31 0.30 91 1025.5
20260901103542 57 80 4.0 8.0 0.01 0.31 0.30 91 1025.5
20260901103051 57 96 4.0 10.0 0.01 0.31 0.30 91 1025.5
20260901102542 57 66 5.0 10.0 0.01 0.31 0.30 91 1025.5
20260901102042 57 74 4.0 8.0 0.02 0.31 0.30 91 1025.3
20260901101607 57 71 3.0 8.0 0.04 0.31 0.30 92 1025.5
20260901101046 57 67 3.0 8.0 0.05 0.31 0.30 92 1025.7
20260901100546 57 94 3.0 7.0 0.05 0.31 0.30 92 1025.7
20260901100054 57 77 3.0 8.0 0.06 0.31 0.30 91 1025.8
20260901095542 57 88 4.0 8.0 0.06 0.31 0.30 91 1025.9
20260901095043 57 85 4.0 8.0 0.10 0.31 0.30 91 1025.9
20260901094605 57 67 3.0 7.0 0.14 0.31 0.30 91 1026.0
20260901094043 57 65 2.0 5.0 0.20 0.31 0.30 91 1026.1
20260901093542 57 75 1.0 5.0 0.19 0.30 0.29 91 1026.2
20260901093054 57 39 2.0 6.0 0.19 0.30 0.29 91 1026.0
20260901092542 57 37 3.0 8.0 0.19 0.30 0.29 91 1026.0
20260901092045 57 46 3.0 8.0 0.19 0.29 0.28 90 1026.4
20260901091602 57 96 2.0 7.0 0.17 0.27 0.26 90 1026.4
20260901091041 57 0 2.0 9.0 0.18 0.26 0.25 90 1026.4
20260901090543 58 169 3.0 10.0 0.23 0.26 0.25 89 1026.4
20260901090052 58 171 5.0 10.0 0.24 0.25 0.24 89 1026.3
20260901085542 58 148 4.0 11.0 0.24 0.25 0.24 88 1026.2
20260901085045 58 143 4.0 13.0 0.19 0.20 0.19 88 1026.3
20260901084556 59 188 7.0 13.0 0.16 0.17 0.16 87 1026.3
20260901084042 59 167 2.0 7.0 0.10 0.11 0.10 88 1026.4
20260901083541 59 249 3.0 7.0 0.10 0.11 0.10 86 1026.2
20260901083111 59 300 0.0 7.0 0.10 0.11 0.10 87 1025.5
20260901082543 60 0 1.0 9.0 0.10 0.11 0.10 86 1025.2
20260901082042 60 84 4.0 9.0 0.09 0.10 0.09 87 1024.9
20260901081556 60 92 3.0 9.0 0.09 0.10 0.09 86 1025.1
20260901081042 60 159 1.0 5.0 0.07 0.08 0.07 85 1025.6
20260901080542 60 333 0.0 6.0 0.02 0.03 0.02 83 1025.8
20260901080105 60 333 0.0 9.0 0.00 0.01 0.00 83 1025.7
20260901075543 60 352 3.0 9.0 0.00 0.01 0.00 82 1025.1
20260901075042 60 16 5.0 9.0 0.00 0.01 0.00 81 1024.8
20260901074558 60 46 6.0 9.0 0.00 0.01 0.00 80 1024.9
20260901074042 60 19 4.0 6.0 0.00 0.01 0.00 79 1024.9
20260901073542 60 5 3.0 6.0 0.00 0.01 0.00 79 1025.1
20260901073056 60 15 4.0 6.0 0.00 0.01 0.00 79 1025.2
20260901072542 61 321 1.0 3.0 0.00 0.01 0.00 78 1025.1
20260901072042 61 321 1.0 3.0 0.00 0.01 0.00 78 1025.0
20260901071628 61 321 1.0 4.0 0.00 0.01 0.00 78 1025.1
20260901071042 61 321 2.0 4.0 0.00 0.01 0.00 78 1025.1
20260901070541 61 321 2.0 4.0 0.00 0.01 0.00 77 1025.0
20260901070053 61 321 2.0 6.0 0.00 0.01 0.00 77 1025.0
20260901065542 61 321 2.0 6.0 0.00 0.01 0.00 77 1025.1
20260901065042 61 292 2.0 5.0 0.00 0.01 0.00 76 1025.1
20260901064556 61 35 1.0 4.0 0.00 0.01 0.00 75 1025.1
20260901064043 61 65 2.0 4.0 0.00 0.01 0.00 72 1025.1
20260901063542 61 95 2.0 7.0 0.00 0.01 0.00 74 1025.0
20260901063056 61 94 3.0 7.0 0.00 0.01 0.00 74 1025.1
20260901062542 60 78 1.0 4.0 0.00 0.01 0.00 74 1025.1
20260901062044 60 78 2.0 4.0 0.00 0.01 0.00 75 1025.1
20260901061635 60 78 3.0 6.0 0.00 0.01 0.00 75 1025.1
20260901061043 60 90 3.0 7.0 0.00 0.01 0.00 76 1024.9
20260901060544 60 86 3.0 9.0 0.00 0.01 0.00 76 1024.8
20260901060100 60 85 4.0 9.0 0.00 0.01 0.00 76 1024.7
20260901055542 60 73 6.0 10.0 0.00 0.01 0.01 77 1024.6
20260901055042 60 65 4.0 10.0 0.00 0.01 0.01 77 1024.6
20260901054553 60 83 5.0 11.0 0.00 0.01 0.01 77 1024.6
20260901054043 60 90 5.0 11.0 0.00 0.01 0.01 77 1024.7
20260901053543 60 80 6.0 11.0 0.00 0.01 0.01 77 1024.5
20260901053049 60 82 7.0 11.0 0.00 0.01 0.01 77 1024.7
20260901052542 61 96 5.0 11.0 0.00 0.01 0.01 77 1024.8
20260901052042 61 88 6.0 11.0 0.00 0.01 0.01 77 1024.9
20260901051550 61 85 6.0 10.0 0.00 0.01 0.01 76 1024.9
20260901051042 61 74 5.0 10.0 0.00 0.01 0.01 77 1025.0
20260901050542 61 67 4.0 10.0 0.00 0.01 0.01 76 1025.1
20260901050059 62 74 6.0 10.0 0.00 0.01 0.01 78 1025.3
20260901045544 62 57 5.0 9.0 0.00 0.01 0.01 78 1025.5
20260901045045 62 80 5.0 8.0 0.00 0.01 0.01 76 1025.5
20260901044604 63 69 3.0 6.0 0.00 0.01 0.01 75 1025.9
20260901044043 63 167 2.0 7.0 0.00 0.01 0.01 74 1026.2
20260901043546 63 167 2.0 7.0 0.00 0.01 0.01 72 1026.4
20260901043113 63 200 2.0 4.0 0.00 0.01 0.01 70 1026.4
20260901042542 63 244 2.0 3.0 0.00 0.01 0.01 69 1026.2
20260901042042 63 244 1.0 4.0 0.00 0.01 0.01 69 1026.0
20260901041550 63 244 2.0 4.0 0.00 0.01 0.01 68 1025.9
20260901041042 63 244 0.0 3.0 0.00 0.01 0.01 67 1025.7
20260901040542 63 244 1.0 4.0 0.00 0.01 0.01 66 1025.5
20260901040125 63 96 0.0 8.0 0.00 0.01 0.01 66 1025.4
20260901035543 63 0 1.0 8.0 0.00 0.01 0.01 66 1025.3
20260901035041 63 94 3.0 9.0 0.00 0.01 0.01 66 1025.3
20260901034607 63 108 4.0 9.0 0.00 0.01 0.01 67 1025.3
20260901034042 63 105 4.0 9.0 0.00 0.01 0.01 67 1025.3
20260901033542 63 120 4.0 9.0 0.00 0.01 0.01 68 1025.3
20260901033122 63 110 2.0 8.0 0.00 0.01 0.01 69 1025.5
20260901032543 63 89 3.0 11.0 0.00 0.01 0.01 70 1025.5
20260901032043 63 123 4.0 11.0 0.00 0.01 0.01 71 1025.5
20260901031606 63 30 4.0 8.0 0.00 0.01 0.01 71 1025.4
20260901031042 63 64 3.0 8.0 0.00 0.01 0.01 72 1025.7
20260901030545 63 98 2.0 8.0 0.00 0.01 0.01 72 1025.7
20260901030058 63 107 2.0 8.0 0.00 0.01 0.01 72 1025.8
20260901025542 64 123 3.0 8.0 0.00 0.01 0.01 71 1025.8
20260901025042 64 113 3.0 9.0 0.00 0.01 0.01 72 1025.8
20260901024554 64 136 4.0 9.0 0.00 0.01 0.01 72 1025.6
20260901024043 64 136 1.0 9.0 0.00 0.01 0.01 70 1025.5
20260901023542 64 94 4.0 11.0 0.00 0.01 0.01 70 1025.1
20260901023059 64 98 5.0 11.0 0.00 0.01 0.01 69 1024.9
20260901022542 64 39 6.0 12.0 0.00 0.01 0.01 68 1024.9
20260901022042 64 38 7.0 12.0 0.00 0.01 0.01 69 1024.8
20260901021550 64 20 8.0 12.0 0.00 0.01 0.01 69 1024.7
20260901021042 64 28 6.0 12.0 0.00 0.01 0.01 70 1024.7
20260901020542 64 55 7.0 13.0 0.00 0.01 0.01 70 1024.7
20260901020051 64 36 5.0 14.0 0.00 0.01 0.01 70 1024.8
20260901015542 64 37 7.0 14.0 0.00 0.01 0.01 70 1024.8
20260901015042 64 49 8.0 12.0 0.00 0.01 0.01 71 1024.7
20260901014605 64 50 7.0 12.0 0.00 0.01 0.01 71 1025.1
20260901014042 64 32 6.0 12.0 0.00 0.01 0.01 73 1025.0
20260901013543 64 37 7.0 11.0 0.00 0.01 0.01 74 1024.9
20260901013100 64 66 4.0 10.0 0.00 0.01 0.01 75 1024.9
20260901012544 64 22 5.0 13.0 0.00 0.01 0.01 75 1025.0
20260901012046 64 54 5.0 13.0 0.00 0.01 0.01 74 1024.8
20260901011555 64 60 5.0 9.0 0.00 0.01 0.01 75 1024.8
20260901011042 64 67 4.0 9.0 0.01 0.01 0.01 75 1024.8
20260901010542 64 20 4.0 9.0 0.01 0.01 0.01 77 1024.7
20260901005542 64 83 3.0 15.0 0.01 0.01 0.01 74 1024.7
20260901005045 64 129 5.0 15.0 0.01 0.01 0.01 74 1024.6
20260901004600 64 64 4.0 14.0 0.01 0.01 0.01 79 1024.5
20260901004042 64 126 6.0 15.0 0.01 0.01 0.01 79 1024.5
20260901003545 64 111 7.0 16.0 0.01 0.01 0.01 79 1024.6
20260901003101 64 92 8.0 16.0 0.01 0.01 0.01 79 1024.5
20260901002542 65 133 9.0 18.0 0.01 0.01 0.01 79 1024.3
20260901002042 66 140 10.0 18.0 0.01 0.01 0.01 77 1024.4
20260901001619 67 116 6.0 16.0 0.01 0.01 0.01 75 1024.5
20260901001042 67 132 8.0 18.0 0.00 0.00 0.00 70 1024.6
20260901000542 68 126 8.0 18.0 0.00 0.00 0.00 66 1024.4
20260831234555 71 173 4.0 16.0 0.00 0.00 0.00 54 1023.6
20260831234043 72 161 10.0 16.0 0.00 0.00 0.00 55 1023.6
20260831233542 73 128 7.0 12.0 0.00 0.00 0.00 52 1023.2
20260831233058 73 118 6.0 13.0 0.00 0.00 0.00 49 1023.1
20260831232543 73 135 7.0 13.0 0.00 0.00 0.00 49 1023.0
20260831232043 74 133 6.0 14.0 0.00 0.00 0.00 47 1023.0
20260831231603 74 144 7.0 14.0 0.00 0.00 0.00 48 1023.0
20260831231043 75 134 7.0 14.0 0.00 0.00 0.00 44 1022.9
20260831230543 75 130 6.0 13.0 0.00 0.00 0.00 44 1022.9
20260831230100 75 109 6.0 13.0 0.00 0.00 0.00 45 1023.0
20260831225542 76 123 6.0 13.0 0.00 0.00 0.00 44 1023.1
20260831225044 76 103 6.0 12.0 0.00 0.00 0.00 45 1023.3
20260831224602 76 94 7.0 18.0 0.00 0.00 0.00 44 1023.2
20260831224042 77 57 7.0 20.0 0.00 0.00 0.00 43 1023.2
20260831223544 78 130 7.0 23.0 0.00 0.00 0.00 45 1023.3
20260831223055 79 119 8.0 23.0 0.00 0.00 0.00 38 1023.3
20260831222542 80 148 13.0 22.0 0.00 0.00 0.00 37 1023.5
20260831222041 82 134 7.0 17.0 0.00 0.00 0.00 37 1023.5
20260831221605 82 139 2.0 11.0 0.00 0.00 0.00 33 1023.1
20260831221043 82 360 6.0 14.0 0.00 0.00 0.00 33 1022.7
20260831220543 83 344 8.0 15.0 0.00 0.00 0.00 32 1022.6
20260831220104 84 16 9.0 18.0 0.00 0.00 0.00 31 1022.7
20260831215543 85 317 9.0 18.0 0.00 0.00 0.00 30 1022.7
20260831215043 87 28 3.0 11.0 0.00 0.00 0.00 30 1022.8
20260831214604 87 29 6.0 11.0 0.00 0.00 0.00 29 1022.7
20260831214042 89 311 5.0 10.0 0.00 0.00 0.00 27 1022.7
20260831213542 90 310 2.0 6.0 0.00 0.00 0.00 27 1022.8
20260831213057 90 250 2.0 9.0 0.00 0.00 0.00 27 1022.9
20260831212542 90 184 3.0 12.0 0.00 0.00 0.00 27 1022.9
20260831212044 90 252 4.0 12.0 0.00 0.00 0.00 26 1022.9
20260831211557 91 243 5.0 13.0 0.00 0.00 0.00 26 1023.0
20260831211042 91 271 7.0 13.0 0.00 0.00 0.00 26 1023.1
20260831210541 90 246 4.0 12.0 0.00 0.00 0.00 27 1023.1
20260831210056 89 223 6.0 12.0 0.00 0.00 0.00 27 1023.3
20260831205544 89 267 7.0 15.0 0.00 0.00 0.00 27 1023.3
20260831205042 89 264 7.0 17.0 0.00 0.00 0.00 27 1023.3
20260831204555 90 240 9.0 17.0 0.00 0.00 0.00 26 1023.3
20260831204044 91 198 4.0 11.0 0.00 0.00 0.00 25 1023.3
20260831203542 91 83 0.0 11.0 0.00 0.00 0.00 26 1023.2
20260831203105 91 227 6.0 11.0 0.00 0.00 0.00 25 1023.3
20260831202543 91 180 3.0 15.0 0.00 0.00 0.00 26 1023.4
20260831202042 91 184 8.0 22.0 0.00 0.00 0.00 26 1023.4
20260831201600 91 188 10.0 22.0 0.00 0.00 0.00 25 1023.5
20260831201042 91 205 6.0 15.0 0.00 0.00 0.00 25 1023.4
20260831200542 90 186 7.0 15.0 0.00 0.00 0.00 26 1023.4
20260831200053 90 185 3.0 18.0 0.00 0.00 0.00 26 1023.4
20260831195541 89 148 7.0 18.0 0.00 0.00 0.00 26 1023.5
20260831195041 88 198 7.0 18.0 0.00 0.00 0.00 28 1023.6
20260831194607 87 263 6.0 15.0 0.00 0.00 0.00 28 1023.6
20260831194042 87 248 6.0 15.0 0.00 0.00 0.00 28 1023.7
20260831193542 87 292 8.0 15.0 0.00 0.00 0.00 28 1023.8
20260831193049 86 245 6.0 13.0 0.00 0.00 0.00 28 1023.9
20260831192542 86 296 2.0 9.0 0.00 0.00 0.00 29 1024.0
20260831192042 86 304 4.0 9.0 0.00 0.00 0.00 28 1023.9
20260831191601 86 282 3.0 14.0 0.00 0.00 0.00 29 1024.1
20260831191042 85 267 6.0 14.0 0.00 0.00 0.00 29 1024.3
20260831190542 85 251 5.0 11.0 0.00 0.00 0.00 30 1024.4
20260831190105 85 245 4.0 14.0 0.00 0.00 0.00 30 1024.4
20260831185541 85 328 5.0 14.0 0.00 0.00 0.00 30 1024.5
20260831185041 85 302 8.0 14.0 0.00 0.00 0.00 29 1024.5
20260831184556 85 311 6.0 14.0 0.00 0.00 0.00 29 1024.5
20260831184041 86 305 9.0 14.0 0.00 0.00 0.00 29 1024.5
20260831183542 87 309 7.0 14.0 0.00 0.00 0.00 28 1024.6
20260831183102 87 277 6.0 14.0 0.00 0.00 0.00 28 1024.7
20260831182545 87 305 7.0 14.0 0.00 0.00 0.00 28 1024.7
20260831182042 87 265 4.0 11.0 0.00 0.00 0.00 28 1024.7
20260831181601 86 291 5.0 11.0 0.00 0.00 0.00 29 1024.8
20260831181041 85 272 2.0 9.0 0.00 0.00 0.00 29 1024.9
20260831180541 85 311 5.0 9.0 0.00 0.00 0.00 30 1024.9
20260831180053 85 348 3.0 9.0 0.00 0.00 0.00 30 1025.0
20260831175542 84 44 2.0 8.0 0.00 0.00 0.00 30 1024.9
20260831175042 83 257 1.0 9.0 0.00 0.00 0.00 31 1025.0
20260831174602 81 132 3.0 9.0 0.00 0.00 0.00 32 1025.1
20260831174045 80 18 2.0 15.0 0.00 0.00 0.00 33 1025.0
20260831173542 80 312 9.0 17.0 0.00 0.00 0.00 34 1025.0
20260831173130 79 333 9.0 17.0 0.00 0.00 0.00 35 1025.0
20260831172543 79 330 6.0 17.0 0.00 0.00 0.00 34 1025.1
20260831172042 78 345 7.0 15.0 0.00 0.00 0.00 35 1025.1
20260831171601 78 298 5.0 16.0 0.00 0.00 0.00 35 1025.1
20260831171041 78 343 9.0 16.0 0.00 0.00 0.00 34 1025.1
20260831170542 77 34 9.0 16.0 0.00 0.00 0.00 35 1025.2
20260831170121 77 352 8.0 16.0 0.00 0.00 0.00 35 1025.1
20260831165542 77 360 10.0 16.0 0.00 0.00 0.00 35 1025.3
20260831165042 77 32 8.0 21.0 0.00 0.00 0.00 36 1025.3